Weather History for Exeter, United Kingdom

Change the Weather History Date:

Thursday, February 14, 2013

  Actual Average Record
Temperature  
Mean Temperature 46 °F -  
Max Temperature 52 °F 48 °F 55 °F (2000)
Min Temperature 39 °F 37 °F 26 °F (2001)
Degree Days  
Heating Degree Days 18    
Moisture  
Dew Point 43 °F    
Average Humidity 86    
Maximum Humidity 100    
Minimum Humidity 67    
Precipitation  
Precipitation 0.01 in - - ()
Sea Level Pressure  
Sea Level Pressure 29.94 in    
Wind  
Wind Speed 10 mph ()    
Max Wind Speed 17 mph    
Max Gust Speed -    
Visibility 5.9 miles    
Events Rain    
Averages and records for this station are not official NWS values.
T = Trace of Precipitation, MM = Missing Value Source: Averaged Metar Reports

Daily Weather History Graph

Daily Weather History Graph

Search for Another Location

Airport:

Trip Planner

Search our weather history database for the weather conditions in past years. The results will help you decide how hot, cold, wet, or windy it might be!

Date:

Astronomy

Feb. 14, 2013 Rise Set
Actual Time 7:27 AM GMT 5:28 PM GMT
Civil Twilight 6:53 AM GMT 6:02 PM GMT
Nautical Twilight 6:14 AM GMT 6:41 PM GMT
Astronomical Twilight 5:37 AM GMT 7:19 PM GMT
Moon 8:47 AM GMT (2/14) 10:56 PM GMT (2/14)
Length of Visible Light 11h 09m
Length of Day
10h 01m
Waxing Crescent, 19% of the Moon is Illuminated
Feb 14
Waxing Crescent
Feb 17
First Quarter
Feb 25
Full
Mar 4
Last Quarter
Mar 11
New

Hourly Weather History & Observations

Time (GMT) Temp. Windchill Dew Point Humidity Pressure Visibility Wind Dir Wind Speed Gust Speed Precip Events Conditions
12:20 AM 50.0 °F - 48.2 °F 94% 29.89 in 5.0 mi South 15.0 mph - N/A   Scattered Clouds
12:50 AM 50.0 °F - 48.2 °F 94% 29.86 in 3.1 mi South 15.0 mph - N/A Rain Light Rain
1:20 AM 50.0 °F - 48.2 °F 94% 29.83 in 3.1 mi SSW 17.3 mph - N/A Rain Light Rain
1:50 AM 50.0 °F - 48.2 °F 94% 29.83 in 3.1 mi South 15.0 mph - N/A Rain Light Rain
2:50 AM 50 °F - 50 °F 100%  in - SW 13.8 mph - -  
5:50 AM 49 °F - 49 °F 100%  in - WNW 8.1 mph - -  
6:20 AM 48.2 °F - 46.4 °F 93% 29.83 in 6.2 mi WNW 9.2 mph - N/A   Scattered Clouds
6:50 AM 48.2 °F - 46.4 °F 93% 29.83 in 6.2 mi WNW 9.2 mph - N/A   Scattered Clouds
7:20 AM 46.4 °F 41.9 °F 44.6 °F 93% 29.83 in 6.2 mi West 9.2 mph - N/A   Scattered Clouds
7:50 AM 46.4 °F 41.9 °F 44.6 °F 93% 29.86 in 6.2 mi West 9.2 mph - N/A   Scattered Clouds
8:20 AM 48.2 °F - 44.6 °F 87% 29.86 in 6.2 mi West 8.1 mph - N/A   Scattered Clouds
8:50 AM 48 °F - 46 °F 92%  in - WNW 6.9 mph - -  
8:50 AM 48.2 °F - 44.6 °F 87% 29.89 in 6.2 mi WNW 9.2 mph - N/A   Partly Cloudy
9:20 AM 48.2 °F - 44.6 °F 87% 29.89 in 6.2 mi WNW 12.7 mph - N/A   Partly Cloudy
9:50 AM 46.4 °F 40.7 °F 42.8 °F 87% 29.89 in 6.2 mi WNW 12.7 mph - N/A   Scattered Clouds
10:20 AM 48.2 °F - 44.6 °F 87% 29.92 in 6.2 mi West 12.7 mph - N/A   Scattered Clouds
10:50 AM 50.0 °F - 44.6 °F 82% 29.92 in 6.2 mi WNW 15.0 mph - N/A   Scattered Clouds
11:20 AM 50.0 °F - 42.8 °F 76% 29.92 in 6.2 mi WNW 13.8 mph - N/A   Scattered Clouds
11:50 AM 50 °F - 43 °F 69%  in - WNW 9.2 mph - -  
11:50 AM 50.0 °F - 42.8 °F 76% 29.92 in 6.2 mi WNW 12.7 mph - N/A   Scattered Clouds
12:20 PM 50.0 °F - 42.8 °F 76% 29.92 in 6.2 mi WNW 13.8 mph - N/A   Scattered Clouds
12:50 PM 50.0 °F - 42.8 °F 76% 29.92 in 6.2 mi WNW 12.7 mph - N/A   Scattered Clouds
1:20 PM 50.0 °F - 41.0 °F 71% 29.92 in 6.2 mi WNW 15.0 mph - N/A   Scattered Clouds
1:50 PM 51.8 °F - 41.0 °F 67% 29.95 in 6.2 mi WNW 15.0 mph - N/A   Scattered Clouds
2:20 PM 50.0 °F - 41.0 °F 71% 29.95 in 6.2 mi WNW 12.7 mph - N/A   Scattered Clouds
2:50 PM 49 °F - 42 °F 69%  in - WNW 9.2 mph - -  
2:50 PM 50.0 °F - 41.0 °F 71% 29.95 in 6.2 mi WNW 10.4 mph - N/A   Mostly Cloudy
3:20 PM 48.2 °F - 42.8 °F 82% 29.95 in 6.2 mi WNW 11.5 mph - N/A   Scattered Clouds
3:50 PM 48.2 °F - 41.0 °F 76% 29.95 in 6.2 mi WNW 13.8 mph - N/A   Scattered Clouds
4:20 PM 48.2 °F - 42.8 °F 82% 29.95 in 6.2 mi West 10.4 mph - N/A   Scattered Clouds
4:50 PM 48.2 °F - 41.0 °F 76% 29.95 in 6.2 mi WNW 12.7 mph - N/A   Scattered Clouds
5:20 PM 46.4 °F 42.4 °F 41.0 °F 81% 29.98 in 6.2 mi WNW 8.1 mph - N/A   Partly Cloudy
5:50 PM 45 °F - 42 °F 86%  in - WNW 6.9 mph - -  
5:50 PM 46.4 °F 41.5 °F 41.0 °F 81% 29.98 in 6.2 mi WNW 10.4 mph - N/A   Partly Cloudy
6:20 PM 44.6 °F 41.4 °F 41.0 °F 87% 29.98 in 6.2 mi WNW 5.8 mph - N/A   Partly Cloudy
6:50 PM 44.6 °F 40.2 °F 41.0 °F 87% 30.01 in 6.2 mi West 8.1 mph - N/A   Partly Cloudy
7:20 PM 44.6 °F 40.2 °F 41.0 °F 87% 30.01 in 6.2 mi West 8.1 mph - N/A   Partly Cloudy
7:50 PM 44.6 °F 39.2 °F 42.8 °F 93% 30.01 in 6.2 mi West 10.4 mph - N/A   Partly Cloudy
8:20 PM 44.6 °F 40.2 °F 41.0 °F 87% 30.01 in 6.2 mi WNW 8.1 mph - N/A   Partly Cloudy
8:50 PM 41 °F - 40 °F 96%  in - WNW 2.3 mph - -  
8:50 PM 42.8 °F 40.1 °F 41.0 °F 93% 30.04 in 6.2 mi WNW 4.6 mph - N/A   Partly Cloudy
9:20 PM 42.8 °F 39.3 °F 41.0 °F 93% 30.04 in 6.2 mi West 5.8 mph - N/A   Partly Cloudy
9:50 PM 42.8 °F 39.3 °F 41.0 °F 93% 30.04 in 6.2 mi West 5.8 mph - N/A   Partly Cloudy
10:20 PM 41.0 °F - 39.2 °F 93% 30.04 in 6.2 mi Calm Calm - N/A   Partly Cloudy
10:50 PM 41.0 °F 36.4 °F 41.0 °F 100% 30.04 in 6.2 mi West 6.9 mph - N/A   Partly Cloudy
11:20 PM 41.0 °F 38.0 °F 41.0 °F 100% 30.06 in 6.2 mi NNE 4.6 mph - N/A   Partly Cloudy
11:50 PM 39 °F - 39 °F 100%  in - WNW 1.2 mph - -